This is the latest recevied weather packets stored in our database for station/object K5OBH. If no packets are shown the sender has not sent any weather packets the latest 10 day(s).
| Time | Temp. | Humidity | Pressure | Rain* | Wind** | Luminosity | Snow |
|---|---|---|---|---|---|---|---|
| 1777340518 | 23.33° C | 56% | 1010 hPa | 0 mm | - | 0 W/m² | - |
| 1777340215 | 23.33° C | 56% | 1009.8 hPa | 0 mm | - | 0 W/m² | - |
| 1777339912 | 23.33° C | 55% | 1009.5 hPa | 0 mm | - | 0 W/m² | - |
| 1777339610 | 23.33° C | 55% | 1009.4 hPa | 0 mm | - | 0 W/m² | - |
| 1777339306 | 23.89° C | 55% | 1009.3 hPa | 0 mm | - | 1 W/m² | - |
| 1777339004 | 23.89° C | 55% | 1009.6 hPa | 0 mm | - | 2 W/m² | - |
| 1777338701 | 23.89° C | 55% | 1009.6 hPa | 0 mm | - | 4 W/m² | - |
| 1777338399 | 24.44° C | 55% | 1009.4 hPa | 0 mm | - | 7 W/m² | - |
| 1777338095 | 24.44° C | 55% | 1009.3 hPa | 0 mm | - | 10 W/m² | - |
| 1777337792 | 24.44° C | 55% | 1009.2 hPa | 0 mm | - | 13 W/m² | - |
| 1777337489 | 25° C | 55% | 1009.2 hPa | 0 mm | - | 16 W/m² | - |
| 1777337186 | 25° C | 54% | 1009.1 hPa | 0 mm | - | 19 W/m² | - |
| 1777336883 | 25° C | 54% | 1009 hPa | 0 mm | - | 22 W/m² | - |
| 1777336582 | 25.56° C | 54% | 1008.8 hPa | 0 mm | - | 25 W/m² | - |
| 1777336280 | 25.56° C | 51% | 1008.5 hPa | 0 mm | - | 30 W/m² | - |
| 1777335977 | 25.56° C | 51% | 1008.4 hPa | 0 mm | - | 36 W/m² | - |
| 1777335673 | 26.11° C | 50% | 1008.6 hPa | 0 mm | - | 44 W/m² | - |
| 1777335370 | 26.11° C | 50% | 1008.3 hPa | 0 mm | - | 53 W/m² | - |
| 1777335069 | 26.67° C | 49% | 1008.2 hPa | 0 mm | - | 61 W/m² | - |
| 1777334766 | 26.67° C | 49% | 1008.4 hPa | 0 mm | - | 69 W/m² | - |
| 1777334463 | 27.22° C | 46% | 1008.3 hPa | 0 mm | - | 78 W/m² | - |
| 1777334159 | 27.22° C | 43% | 1008 hPa | 0 mm | - | 86 W/m² | - |
| 1777333859 | 27.22° C | 43% | 1008.3 hPa | 0 mm | - | 97 W/m² | - |
| 1777333556 | 27.78° C | 43% | 1008 hPa | 0 mm | - | 107 W/m² | - |
| 1777333252 | 27.78° C | 43% | 1007.9 hPa | 0 mm | - | 117 W/m² | - |
* Rain latest hour (hover to see other rain measurements)
** Current wind speed in m/s (hover to see current wind gust speed)